Content
SEND FEEDBACK

Daily
Averages
Monthly
Summary
United States of America

PAHOA, HAWAII


Home > North America > United States > Hawaii
Elevation: 636 feet     Latitude: 19 30N     Longitude: 154 57W

WEATHER
 
SELECT A DAY
Number of Records: 230,314;   Date Range: 1/1/95 - 9/21/14
 
SHARE

PRINT THIS DATA

[ ← Previous Day ]
WEATHER ALMANAC - JANUARY 3, 2013
[ Next Day → ]
[ °C ]   °F
Weather ElementAverageHighLow
Temperature71.3 °F80.1 °F (12:53 pm)64 °F (3:53 am)
Dewpoint60.6 °F62.1 °F (10:53 am)57 °F (7:53 am)
Humidity69.6 %81 % (1:53 am)54 % (11:53 am)
Barometer30.04 in30.10 in (10:53 pm)29.99 in (3:53 am)
Wind Speed4.8 mph10.4 mph (12:53 pm)
Weather ElementAverage
Visibility10 mi
Wind DirectionESE (128.6 °)

Weather ElementTotal
Precipitation---
Cooling Degree Days7.1 (Base 65)
Growing Degree Days22.1 (Base 50)
Averaged from 22 records on January 3, 2013
WEATHER CONDITIONS BREAKOUT
WIND DIRECTION BREAKOUT
WEATHER BY HOUR - JANUARY 3, 2013
[ °C ]   °F
Local TimeTemperatureDewpointHumidityBarometerVisibilityWind DirectionWind SpeedGust SpeedPrecipitationEventsConditions
1:53 AM66.9 °F61.0 °F81 %30.02 in10.0 miSW (220°)5.8 mphPartly Cloudy
2:53 AM66.0 °F59.0 °F78 %30.00 in10.0 miSW (230°)4.6 mphClear
3:53 AM64.0 °F57.9 °F80 %29.99 in10.0 miCalmClear
4:53 AM64.0 °F57.9 °F80 %30.01 in10.0 miSW (220°)6.9 mphPartly Cloudy
5:53 AM64.9 °F57.9 °F78 %30.01 in10.0 miWSW (240°)5.8 mphMostly Cloudy
6:53 AM66.9 °F57.9 °F73 %30.02 in10.0 miWSW (250°)6.9 mphMostly Cloudy
7:53 AM66.0 °F57.0 °F73 %30.04 in10.0 miWSW (240°)6.9 mphMostly Cloudy
8:53 AM70.0 °F60.1 °F71 %30.07 in10.0 miCalm0.00 inOvercast
10:53 AM78.1 °F62.1 °F58 %30.06 in10.0 miSouth (190°)4.6 mphScattered Clouds
11:53 AM79.0 °F61.0 °F54 %30.04 in10.0 miCalmScattered Clouds
12:53 PM80.1 °F62.1 °F54 %30.01 in10.0 miENE (70°)10.4 mphScattered Clouds
1:53 PM80.1 °F62.1 °F54 %29.99 in10.0 miNNE (20°)9.2 mphClear
2:53 PM78.1 °F62.1 °F58 %29.99 in10.0 miENE (60°)8.1 mphPartly Cloudy
3:53 PM78.1 °F62.1 °F58 %30.00 in10.0 miENE (60°)9.2 mphPartly Cloudy
4:53 PM77.0 °F62.1 °F60 %30.02 in10.0 miNE (50°)6.9 mphClear
5:53 PM73.9 °F62.1 °F66 %30.04 in10.0 miNE (40°)3.5 mphOvercast
6:53 PM73.0 °F62.1 °F68 %30.06 in10.0 miCalmClear
7:53 PM69.1 °F62.1 °F78 %30.08 in10.0 miWSW (250°)5.8 mphOvercast
8:53 PM69.1 °F61.0 °F75 %30.09 in10.0 miWSW (250°)3.5 mphOvercast
9:53 PM68.0 °F60.1 °F76 %30.09 in10.0 miWSW (240°)3.5 mphMostly Cloudy
10:53 PM68.0 °F62.1 °F81 %30.10 in10.0 miSSW (200°)3.5 mph0.00 inMostly Cloudy
11:53 PM68.0 °F61.0 °F78 %30.09 in10.0 miCalmMostly Cloudy
Hourly data recorded from PHTO, located miles away from Pahoa, Hawaii







STORIES FROM OUR PARTNERS